Hourly Data Report for October 28, 2018

MONTREAL INTL A
QUEBEC
Current Station Operator: NAVCAN

45°28'14.000" N
73°44'27.000" W
36.00 m
7025251
71627
YUL

Download Data

Hourly Data (October 2018)
Hourly Data Report for October 28, 2018
TIME
LST
Temp Definition
°C
Dew Point Definition
°C
Rel Hum Definition
%
Precip. Amount Definition
mm

Wind Dir Definition
10's deg

Wind Spd Definition
km/h
Visibility Definition
km
Stn Press Definition
kPa
Hmdx Definition


Wind Chill Definition


Weather Definition


00:00 0.5 -0.4 93   4 36 8.1 100.57     Rain, Snow, Fog
01:00 0.8 -0.4 92   4 45 16.1 100.47     Cloudy
02:00 0.9 -0.2 92   4 40 19.3 100.39     LegendNANA
03:00 1.0 -0.1 92   4 42 9.7 100.33     Rain, Fog
04:00 1.1 0.2 93   4 35 8.1 100.27     Rain, Fog
05:00 1.2 0.2 93   4 28 9.7 100.25     Rain, Fog
06:00 1.0 0.1 94   4 27 8.1 100.20     Rain, Snow, Fog
07:00 1.1 0.2 94   4 30 4.0 100.19     Drizzle, Fog
08:00 1.3 0.8 96   4 23 9.7 100.17     Rain, Fog
09:00 1.6 1.1 97   4 16 3.6 100.18     Rain, Fog
10:00 2.0 1.6 97   4 16 4.8 100.15     Rain, Fog
11:00 2.0 1.6 97   4 9 9.7 100.12     Rain, Fog
12:00 2.3 1.9 97   4 10 24.1 100.07     Drizzle
13:00 3.1 2.2 93   5 5 16.1 100.04     Rain
14:00 3.9 3.0 94   36 3 12.9 100.04     Rain
15:00 4.5 3.1 91   24 7 19.3 100.06     Rain
16:00 4.0 2.5 90   24 8 19.3 100.09     Drizzle
17:00 3.6 2.3 91   25 10 24.1 100.11     Drizzle
18:00 3.5 2.2 91   24 11 24.1 100.16     LegendNANA
19:00 3.5 2.1 90   22 9 24.1 100.18     Cloudy
20:00 3.2 2.0 92   25 8 24.1 100.17     LegendNANA
21:00 3.2 1.9 92   25 6 24.1 100.16     Drizzle
22:00 3.1 2.0 93   29 4 19.3 100.15     Drizzle
23:00 3.2 2.0 92   36 2 9.7 100.12     Drizzle, Fog

Notes on Data Quality.

Legend

  • E = Estimated
  • M = Missing
  • NA = Not Available*
  • [empty] = Indicates an unobserved value
Date modified: